Starlink 11385

operational
NORAD ID: 62014 Int'l Des: 2024-213 Owner: SPXS Country: US Constellation: starlink
LEOCIRCULAR

About Starlink 11385

Description loading...

Live Position

Loading 3D Globe...

Upcoming Passes

Altitude History

Altitude vs Time

uPlot chart will show altitude changes over time

Two-Line Element Set

1 62014U 24213G 25354.61724326 .00129231 00000-0 10536-2 0 9990
2 62014 53.1582 71.2325 0001483 53.5842 306.5312 15.69742710 62495
Epoch: Dec 20, 2025 • Age: 10 hours

Current Status

Altitude 368.4 km
Velocity 7.69 km/s
Sub-Earth Point -27.47°S, 168.69°E
Launch Date Nov 18, 2024
Age 1 years
Type internet

Technical Details

Classification Payload
Mass 960.00 kg
Dry Mass 910.00 kg
Total Mass 960.00 kg
Length 0.30 m
Diameter 4.10 m
Span 29.00 m
Shape Box + pan
Manufacturer SPXS
Bus Type Starlink V2MD
Phase Status In Orbit
Owner/State SPXS/US

Large Constellations

Loading constellations...